Time,TemperatureF,DewpointF,PressureIn,WindDirection,WindDirectionDegrees,WindSpeedMPH,WindSpeedGustMPH,Humidity,HourlyPrecipIn,Conditions,Clouds,dailyrainin,SoftwareType,DateUTC
2013-03-15 00:03:00,15.0,7.0,29.86,NW,322,6.0,9.0,71,0.00,,,0.01,,2013-03-15 04:03:00,
2013-03-15 00:12:00,15.0,7.0,29.86,NW,322,6.0,9.0,71,0.00,,,0.01,,2013-03-15 04:12:00,
2013-03-15 00:23:00,15.0,5.0,29.86,NNW,346,3.0,15.0,64,0.00,,,0.01,,2013-03-15 04:23:00,
2013-03-15 00:32:00,15.0,4.0,29.87,North,360,2.0,10.0,62,0.00,,,0.01,,2013-03-15 04:32:00,
2013-03-15 00:43:00,15.0,4.0,29.87,North,360,2.0,10.0,62,0.00,,,0.01,,2013-03-15 04:43:00,
2013-03-15 00:53:00,15.0,4.0,29.87,North,360,2.0,10.0,62,0.00,,,0.01,,2013-03-15 04:53:00,
2013-03-15 01:02:00,15.0,4.0,29.87,North,360,1.0,8.0,61,0.00,,,0.01,,2013-03-15 05:02:00,
2013-03-15 01:12:00,15.0,4.0,29.87,North,360,1.0,8.0,61,0.00,,,0.01,,2013-03-15 05:12:00,
2013-03-15 01:23:00,15.0,4.0,29.87,North,360,1.0,4.0,62,0.00,,,0.01,,2013-03-15 05:23:00,
2013-03-15 01:32:00,15.0,4.0,29.86,ENE,74,3.0,6.0,61,0.00,,,0.01,,2013-03-15 05:32:00,
2013-03-15 01:42:00,15.0,4.0,29.86,ENE,74,3.0,6.0,61,0.00,,,0.01,,2013-03-15 05:42:00,
2013-03-15 01:52:00,15.0,4.0,29.86,ESE,113,1.0,3.0,62,0.00,,,0.01,,2013-03-15 05:52:00,
2013-03-15 02:02:00,15.0,5.0,29.87,NNE,29,0.0,1.0,63,0.00,,,0.01,,2013-03-15 06:02:00,
2013-03-15 02:12:00,15.0,5.0,29.87,NNE,29,0.0,1.0,63,0.00,,,0.01,,2013-03-15 06:12:00,
2013-03-15 02:22:00,15.0,5.0,29.87,North,5,4.0,6.0,63,0.00,,,0.01,,2013-03-15 06:22:00,
2013-03-15 02:32:00,15.0,5.0,29.87,NNW,331,3.0,8.0,64,0.00,,,0.01,,2013-03-15 06:32:00,
2013-03-15 02:42:00,15.0,5.0,29.87,NNW,331,3.0,8.0,64,0.00,,,0.01,,2013-03-15 06:42:00,
2013-03-15 02:53:00,15.0,6.0,29.86,SSE,150,0.0,4.0,67,0.00,,,0.01,,2013-03-15 06:53:00,
2013-03-15 03:02:00,15.0,6.0,29.86,SW,218,5.0,8.0,67,0.00,,,0.00,,2013-03-15 07:02:00,
2013-03-15 03:12:00,15.0,6.0,29.86,SW,218,5.0,8.0,67,0.00,,,0.00,,2013-03-15 07:12:00,
2013-03-15 03:22:00,15.0,6.0,29.86,NNE,22,2.0,6.0,66,0.00,,,0.00,,2013-03-15 07:22:00,
2013-03-15 03:32:00,15.0,5.0,29.86,North,355,1.0,4.0,65,0.00,,,0.00,,2013-03-15 07:32:00,
2013-03-15 03:42:00,15.0,5.0,29.86,North,355,1.0,4.0,65,0.00,,,0.00,,2013-03-15 07:42:00,
2013-03-15 03:52:00,15.0,5.0,29.85,SW,234,1.0,10.0,65,0.00,,,0.00,,2013-03-15 07:52:00,
2013-03-15 04:02:00,15.0,5.0,29.85,NNE,13,0.0,6.0,64,0.00,,,0.00,,2013-03-15 08:02:00,
2013-03-15 04:12:00,15.0,5.0,29.85,NNE,13,0.0,6.0,64,0.00,,,0.00,,2013-03-15 08:12:00,
2013-03-15 04:23:00,15.0,5.0,29.85,WNW,295,1.0,8.0,65,0.00,,,0.00,,2013-03-15 08:23:00,
2013-03-15 04:33:00,15.0,6.0,29.85,North,5,0.0,6.0,66,0.00,,,0.00,,2013-03-15 08:33:00,
2013-03-15 04:42:00,15.0,6.0,29.85,North,5,0.0,6.0,66,0.00,,,0.00,,2013-03-15 08:42:00,
2013-03-15 04:52:00,15.0,6.0,29.84,NNE,32,2.0,14.0,67,0.00,,,0.00,,2013-03-15 08:52:00,
2013-03-15 05:02:00,15.0,6.0,29.85,NW,304,2.0,9.0,66,0.00,,,0.00,,2013-03-15 09:02:00,
2013-03-15 05:12:00,15.0,6.0,29.85,NW,304,2.0,9.0,66,0.00,,,0.00,,2013-03-15 09:12:00,
2013-03-15 05:22:00,15.0,6.0,29.85,NNW,333,0.0,8.0,66,0.00,,,0.00,,2013-03-15 09:22:00,
2013-03-15 05:33:00,15.0,6.0,29.84,NE,56,3.0,12.0,67,0.00,,,0.00,,2013-03-15 09:33:00,
2013-03-15 05:43:00,15.0,6.0,29.84,NE,56,3.0,12.0,67,0.00,,,0.00,,2013-03-15 09:43:00,
2013-03-15 05:53:00,15.0,6.0,29.84,NE,44,5.0,12.0,68,0.00,,,0.00,,2013-03-15 09:53:00,
2013-03-15 06:03:00,15.0,6.0,29.84,NNW,337,1.0,6.0,68,0.00,,,0.00,,2013-03-15 10:03:00,
2013-03-15 06:13:00,15.0,6.0,29.84,NNW,337,1.0,6.0,68,0.00,,,0.00,,2013-03-15 10:13:00,
2013-03-15 06:23:00,15.0,6.0,29.84,ENE,61,0.0,2.0,67,0.00,,,0.00,,2013-03-15 10:23:00,
2013-03-15 06:33:00,14.0,5.0,29.84,NNE,33,2.0,5.0,67,0.00,,,0.00,,2013-03-15 10:33:00,
2013-03-15 06:42:00,14.0,5.0,29.84,NNE,33,2.0,5.0,67,0.00,,,0.00,,2013-03-15 10:42:00,
2013-03-15 06:52:00,14.0,5.0,29.83,NE,34,0.0,0.0,68,0.00,,,0.00,,2013-03-15 10:52:00,
2013-03-15 07:03:00,14.0,6.0,29.83,NNE,33,0.0,0.0,70,0.00,,,0.00,,2013-03-15 11:03:00,
2013-03-15 07:12:00,14.0,6.0,29.83,NNE,33,0.0,0.0,70,0.00,,,0.00,,2013-03-15 11:12:00,
2013-03-15 07:23:00,13.0,6.0,29.82,NNE,33,0.0,1.0,73,0.00,,,0.00,,2013-03-15 11:23:00,
2013-03-15 07:32:00,12.0,5.0,29.83,NE,34,0.0,0.0,74,0.00,,,0.00,,2013-03-15 11:32:00,
2013-03-15 07:42:00,12.0,5.0,29.83,NE,34,0.0,0.0,74,0.00,,,0.00,,2013-03-15 11:42:00,
2013-03-15 07:52:00,12.0,6.0,29.82,NE,34,0.0,0.0,76,0.00,,,0.00,,2013-03-15 11:52:00,
2013-03-15 08:02:00,12.0,6.0,29.82,NE,55,0.0,1.0,77,0.00,,,0.00,,2013-03-15 12:02:00,
2013-03-15 08:12:00,12.0,6.0,29.82,NE,55,0.0,1.0,77,0.00,,,0.00,,2013-03-15 12:12:00,
2013-03-15 08:23:00,12.0,6.0,29.81,NE,55,0.0,0.0,78,0.00,,,0.00,,2013-03-15 12:23:00,
2013-03-15 08:32:00,12.0,7.0,29.81,NE,55,0.0,1.0,79,0.00,,,0.00,,2013-03-15 12:32:00,
2013-03-15 08:42:00,12.0,7.0,29.81,NE,55,0.0,1.0,79,0.00,,,0.00,,2013-03-15 12:42:00,
2013-03-15 08:52:00,13.0,8.0,29.80,NE,55,0.0,0.0,80,0.00,,,0.00,,2013-03-15 12:52:00,
2013-03-15 09:02:00,15.0,9.0,29.80,NE,55,0.0,1.0,77,0.00,,,0.00,,2013-03-15 13:02:00,
2013-03-15 09:12:00,15.0,9.0,29.80,NE,55,0.0,1.0,77,0.00,,,0.00,,2013-03-15 13:12:00,
2013-03-15 09:22:00,18.0,10.0,29.79,ENE,57,0.0,1.0,69,0.00,,,0.00,,2013-03-15 13:22:00,
2013-03-15 09:32:00,20.0,9.0,29.78,SW,219,4.0,7.0,63,0.00,,,0.00,,2013-03-15 13:32:00,
2013-03-15 09:42:00,20.0,9.0,29.78,SW,219,4.0,7.0,63,0.00,,,0.00,,2013-03-15 13:42:00,
2013-03-15 09:53:00,21.0,9.0,29.77,South,188,1.0,6.0,59,0.00,,,0.00,,2013-03-15 13:53:00,
2013-03-15 10:02:00,23.0,10.0,29.77,SSW,194,0.0,4.0,56,0.00,,,0.00,,2013-03-15 14:02:00,
2013-03-15 10:12:00,23.0,10.0,29.77,SSW,194,0.0,4.0,56,0.00,,,0.00,,2013-03-15 14:12:00,
2013-03-15 10:22:00,25.0,10.0,29.76,SW,236,2.0,5.0,53,0.00,,,0.00,,2013-03-15 14:22:00,
2013-03-15 10:32:00,24.0,9.0,29.75,SSE,156,1.0,7.0,52,0.00,,,0.00,,2013-03-15 14:32:00,
2013-03-15 10:42:00,24.0,9.0,29.75,SSE,156,1.0,7.0,52,0.00,,,0.00,,2013-03-15 14:42:00,
2013-03-15 10:53:00,27.0,11.0,29.74,SW,220,0.0,3.0,51,0.00,,,0.00,,2013-03-15 14:53:00,
2013-03-15 11:02:00,28.0,10.0,29.73,SSW,194,4.0,8.0,46,0.00,,,0.00,,2013-03-15 15:02:00,
2013-03-15 11:13:00,28.0,10.0,29.73,SSW,194,4.0,8.0,46,0.00,,,0.00,,2013-03-15 15:13:00,
2013-03-15 11:23:00,28.0,10.0,29.72,SW,236,4.0,8.0,46,0.00,,,0.00,,2013-03-15 15:23:00,
2013-03-15 11:33:00,29.0,8.0,29.71,WSW,237,3.0,8.0,41,0.00,,,0.00,,2013-03-15 15:33:00,
2013-03-15 11:42:00,29.0,8.0,29.70,SSW,196,7.0,12.0,40,0.00,,,0.00,,2013-03-15 15:42:00,
2013-03-15 11:53:00,29.0,8.0,29.70,SSW,196,7.0,12.0,40,0.00,,,0.00,,2013-03-15 15:53:00,
2013-03-15 12:03:00,31.0,8.0,29.68,SW,219,4.0,9.0,38,0.00,,,0.00,,2013-03-15 16:03:00,
2013-03-15 12:12:00,31.0,7.0,29.67,East,95,5.0,8.0,36,0.00,,,0.00,,2013-03-15 16:12:00,
2013-03-15 12:23:00,31.0,7.0,29.67,East,95,5.0,8.0,36,0.00,,,0.00,,2013-03-15 16:23:00,
2013-03-15 12:32:00,32.0,8.0,29.67,North,355,1.0,8.0,36,0.00,,,0.00,,2013-03-15 16:32:00,
2013-03-15 12:42:00,32.0,8.0,29.67,North,355,1.0,8.0,36,0.00,,,0.00,,2013-03-15 16:42:00,
2013-03-15 12:52:00,31.0,8.0,29.66,South,188,4.0,9.0,38,0.00,,,0.00,,2013-03-15 16:52:00,
2013-03-15 13:02:00,33.0,10.0,29.65,South,171,2.0,8.0,37,0.00,,,0.00,,2013-03-15 17:02:00,
2013-03-15 13:12:00,33.0,10.0,29.65,South,171,2.0,8.0,37,0.00,,,0.00,,2013-03-15 17:12:00,
2013-03-15 13:22:00,33.0,10.0,29.63,South,185,11.0,16.0,37,0.00,,,0.00,,2013-03-15 17:22:00,
2013-03-15 13:32:00,33.0,11.0,29.62,SW,219,7.0,14.0,39,0.00,,,0.00,,2013-03-15 17:32:00,
2013-03-15 13:42:00,33.0,11.0,29.62,SW,219,7.0,14.0,39,0.00,,,0.00,,2013-03-15 17:42:00,
2013-03-15 13:53:00,33.0,11.0,29.61,SSW,192,7.0,12.0,39,0.00,,,0.00,,2013-03-15 17:53:00,
2013-03-15 14:02:00,33.0,12.0,29.61,SSW,209,6.0,13.0,41,0.00,,,0.00,,2013-03-15 18:02:00,
2013-03-15 14:12:00,33.0,12.0,29.61,SSW,209,6.0,13.0,41,0.00,,,0.00,,2013-03-15 18:12:00,
2013-03-15 14:22:00,33.0,12.0,29.59,South,190,5.0,11.0,41,0.00,,,0.00,,2013-03-15 18:22:00,
2013-03-15 14:32:00,33.0,13.0,29.58,South,181,5.0,14.0,43,0.00,,,0.00,,2013-03-15 18:32:00,
2013-03-15 14:42:00,33.0,13.0,29.58,South,181,5.0,14.0,43,0.00,,,0.00,,2013-03-15 18:42:00,
2013-03-15 14:52:00,34.0,16.0,29.58,WSW,254,3.0,12.0,47,0.00,,,0.00,,2013-03-15 18:52:00,
2013-03-15 15:02:00,34.0,16.0,29.57,SSW,205,5.0,11.0,47,0.00,,,0.00,,2013-03-15 19:02:00,
2013-03-15 15:12:00,34.0,16.0,29.57,SSW,205,5.0,11.0,47,0.00,,,0.00,,2013-03-15 19:12:00,
2013-03-15 15:22:00,33.0,17.0,29.57,SSW,195,5.0,12.0,52,0.00,,,0.00,,2013-03-15 19:22:00,
2013-03-15 15:32:00,31.0,18.0,29.57,SSW,200,1.0,10.0,59,0.00,,,0.00,,2013-03-15 19:32:00,
2013-03-15 15:42:00,31.0,18.0,29.57,SSW,200,1.0,10.0,59,0.00,,,0.00,,2013-03-15 19:42:00,
2013-03-15 15:53:00,32.0,19.0,29.57,WSW,240,8.0,14.0,57,0.00,,,0.00,,2013-03-15 19:53:00,
2013-03-15 16:02:00,31.0,19.0,29.57,WSW,242,3.0,21.0,60,0.00,,,0.00,,2013-03-15 20:02:00,
2013-03-15 16:12:00,31.0,19.0,29.57,WSW,242,3.0,21.0,60,0.00,,,0.00,,2013-03-15 20:12:00,
2013-03-15 16:22:00,31.0,19.0,29.56,SW,226,5.0,14.0,61,0.00,,,0.00,,2013-03-15 20:22:00,
2013-03-15 16:32:00,31.0,20.0,29.56,West,269,2.0,10.0,63,0.00,,,0.00,,2013-03-15 20:32:00,
2013-03-15 16:42:00,31.0,20.0,29.56,West,269,2.0,10.0,63,0.00,,,0.00,,2013-03-15 20:42:00,
2013-03-15 16:52:00,31.0,21.0,29.56,WSW,254,5.0,12.0,67,0.00,,,0.00,,2013-03-15 20:52:00,
2013-03-15 17:02:00,31.0,23.0,29.55,WSW,254,1.0,7.0,72,0.00,,,0.00,,2013-03-15 21:02:00,
2013-03-15 17:12:00,31.0,23.0,29.55,WSW,254,1.0,7.0,72,0.00,,,0.00,,2013-03-15 21:12:00,
2013-03-15 17:22:00,30.0,23.0,29.55,SW,232,2.0,8.0,76,0.00,,,0.00,,2013-03-15 21:22:00,
2013-03-15 17:33:00,30.0,25.0,29.55,SSW,198,2.0,8.0,81,0.00,,,0.00,,2013-03-15 21:33:00,
2013-03-15 17:43:00,30.0,25.0,29.55,SSW,198,2.0,8.0,81,0.00,,,0.00,,2013-03-15 21:43:00,
2013-03-15 17:53:00,30.0,25.0,29.55,SSW,202,2.0,5.0,83,0.00,,,0.00,,2013-03-15 21:53:00,
2013-03-15 18:03:00,30.0,26.0,29.54,South,172,3.0,5.0,85,0.00,,,0.00,,2013-03-15 22:03:00,
2013-03-15 18:14:00,30.0,26.0,29.54,South,172,3.0,5.0,85,0.00,,,0.00,,2013-03-15 22:14:00,
2013-03-15 18:22:00,30.0,26.0,29.54,South,172,0.0,3.0,84,0.00,,,0.00,,2013-03-15 22:22:00,
2013-03-15 18:32:00,30.0,26.0,29.54,South,172,0.0,0.0,84,0.00,,,0.00,,2013-03-15 22:32:00,
2013-03-15 18:42:00,30.0,26.0,29.54,South,172,0.0,0.0,84,0.00,,,0.00,,2013-03-15 22:42:00,
2013-03-15 18:53:00,30.0,26.0,29.54,WSW,248,1.0,2.0,84,0.00,,,0.00,,2013-03-15 22:53:00,
2013-03-15 19:02:00,30.0,26.0,29.54,WSW,248,0.0,2.0,84,0.00,,,0.00,,2013-03-15 23:02:00,
2013-03-15 19:12:00,30.0,26.0,29.54,WSW,248,0.0,2.0,84,0.00,,,0.00,,2013-03-15 23:12:00,
2013-03-15 19:22:00,30.0,26.0,29.54,WSW,248,0.0,1.0,85,0.00,,,0.00,,2013-03-15 23:22:00,
2013-03-15 19:32:00,30.0,26.0,29.54,North,9,2.0,6.0,86,0.00,,,0.00,,2013-03-15 23:32:00,
2013-03-15 19:42:00,30.0,26.0,29.54,North,9,2.0,6.0,86,0.00,,,0.00,,2013-03-15 23:42:00,
2013-03-15 19:53:00,29.0,26.0,29.56,NNE,13,1.0,10.0,88,0.00,,,0.00,,2013-03-15 23:53:00,
2013-03-15 20:03:00,29.0,26.0,29.57,NE,45,0.0,3.0,89,0.00,,,0.00,,2013-03-16 00:03:00,
2013-03-15 20:12:00,29.0,26.0,29.57,NE,45,0.0,3.0,89,0.00,,,0.00,,2013-03-16 00:12:00,
2013-03-15 20:22:00,28.0,25.0,29.58,NE,54,3.0,10.0,90,0.00,,,0.00,,2013-03-16 00:22:00,
2013-03-15 20:32:00,28.0,25.0,29.59,NNW,337,4.0,7.0,90,0.00,,,0.00,,2013-03-16 00:32:00,
2013-03-15 20:42:00,28.0,25.0,29.59,NNW,337,4.0,7.0,90,0.00,,,0.00,,2013-03-16 00:42:00,
2013-03-15 20:52:00,27.0,24.0,29.61,NNW,341,0.0,13.0,90,0.00,,,0.00,,2013-03-16 00:52:00,
2013-03-15 21:03:00,26.0,23.0,29.61,WNW,301,0.0,8.0,90,0.00,,,0.00,,2013-03-16 01:03:00,
2013-03-15 21:12:00,26.0,23.0,29.61,WNW,301,0.0,8.0,90,0.00,,,0.00,,2013-03-16 01:12:00,
2013-03-15 21:22:00,26.0,23.0,29.61,SE,144,0.0,4.0,89,0.00,,,0.00,,2013-03-16 01:22:00,
2013-03-15 21:32:00,25.0,22.0,29.62,SSE,160,1.0,4.0,89,0.00,,,0.00,,2013-03-16 01:32:00,
2013-03-15 21:42:00,25.0,22.0,29.62,SSE,160,1.0,4.0,89,0.00,,,0.00,,2013-03-16 01:42:00,
2013-03-15 21:53:00,25.0,22.0,29.62,SE,141,0.0,0.0,89,0.00,,,0.00,,2013-03-16 01:53:00,
2013-03-15 22:02:00,25.0,22.0,29.63,ENE,72,0.0,9.0,89,0.00,,,0.00,,2013-03-16 02:02:00,
2013-03-15 22:12:00,25.0,22.0,29.63,ENE,72,0.0,9.0,89,0.00,,,0.00,,2013-03-16 02:12:00,
2013-03-15 22:23:00,25.0,22.0,29.64,NW,307,0.0,10.0,89,0.00,,,0.00,,2013-03-16 02:23:00,
2013-03-15 22:32:00,25.0,22.0,29.64,South,175,0.0,5.0,90,0.00,,,0.00,,2013-03-16 02:32:00,
2013-03-15 22:42:00,25.0,22.0,29.64,South,175,0.0,5.0,90,0.00,,,0.00,,2013-03-16 02:42:00,
2013-03-15 22:52:00,25.0,22.0,29.65,South,171,0.0,5.0,90,0.00,,,0.00,,2013-03-16 02:52:00,
2013-03-15 23:02:00,25.0,22.0,29.65,South,171,0.0,1.0,90,0.00,,,0.00,,2013-03-16 03:02:00,
2013-03-15 23:12:00,25.0,22.0,29.65,South,171,0.0,1.0,90,0.00,,,0.00,,2013-03-16 03:12:00,
2013-03-15 23:22:00,25.0,22.0,29.66,NW,325,0.0,9.0,90,0.00,,,0.00,,2013-03-16 03:22:00,
2013-03-15 23:32:00,25.0,22.0,29.66,NNE,17,3.0,13.0,89,0.00,,,0.00,,2013-03-16 03:32:00,
2013-03-15 23:43:00,25.0,22.0,29.66,NNE,17,3.0,13.0,89,0.00,,,0.00,,2013-03-16 03:43:00,
2013-03-15 23:53:00,25.0,22.0,29.67,NNW,338,5.0,12.0,88,0.00,,,0.00,,2013-03-16 03:53:00,